Location: Newark
(47.5783°N, 6.7622°E)
Time: 11:57:18
(UTC+00:00)

ISS - Visible Passes

Search period start: 22 January 2020 00:00
Search period end: 01 February 2020 00:00
Orbit: 415 x 421 km, 51.6° (Epoch: 22 January)

Date Brightness Start Highest point End Pass type
(mag) Time Alt. Az. Time Alt. Az. Time Alt. Az.
22 Jan -2.1 17:24:12 10° S 17:26:48 21° SE 17:28:18 16° ESE visible
22 Jan -1.3 18:59:54 10° WSW 19:01:14 22° WSW 19:01:14 22° WSW visible
23 Jan -3.9 18:11:56 10° SW 18:15:17 71° SSE 18:15:23 70° SE visible
24 Jan -3.2 17:24:05 10° SW 17:27:20 47° SSE 17:29:28 19° E visible
24 Jan -1.4 19:00:50 10° W 19:02:24 24° W 19:02:24 24° W visible
25 Jan -3.6 18:12:43 10° W 18:16:03 63° NNW 18:16:26 57° NNE visible
26 Jan -3.8 17:24:38 10° WSW 17:28:01 84° NNW 17:30:25 18° ENE visible
26 Jan -1.4 19:01:50 10° WNW 19:03:21 22° WNW 19:03:21 22° WNW visible
27 Jan -3.1 18:13:40 10° W 18:16:54 43° N 18:17:17 41° NNE visible
28 Jan -3.2 17:25:28 10° W 17:28:46 50° NNW 17:31:13 16° ENE visible
28 Jan -1.4 19:02:42 10° WNW 19:04:09 22° NW 19:04:09 22° NW visible
29 Jan -3.0 18:14:35 10° WNW 18:17:46 39° N 18:18:04 38° NNE visible
30 Jan -3.0 17:26:23 10° WNW 17:29:36 40° N 17:31:59 16° ENE visible
30 Jan -1.5 19:03:25 10° WNW 19:04:55 23° NW 19:04:55 23° NW visible
31 Jan -3.3 18:15:19 10° WNW 18:18:35 46° N 18:18:51 45° NNE visible
